User: anonymous   Login
Location: Theydon Bois
(51.6750°N, 0.1050°E)
Time: 22:30:13
(UTC+01:00)
Language:

Timation 2 Rocket - Orbit

View from above orbital plane
View from above orbital plane
View from above satellite
View from above satellite

Ground track
Ground track

The orbit data is extracted from the following two-line orbital elements,

1 04159U 69082AB  17294.46538240 -.00000056  00000-0 -54704-5 0  9997
2 04159  69.9617 256.5545 0118580 292.4123  66.4443 13.72384155405406
Epoch (UTC): 21 October 2017 11:10:09
Eccentricity: 0.0118580
inclination: 69.9617°
perigee height: 903 km
apogee height: 1078 km
right ascension of ascending node: 256.5545°
argument of perigee: 292.4123°
revolutions per day: 13.72384155
mean anomaly at epoch: 66.4443°
orbit number at epoch: 40540

The dashed part of the orbit path shows where the satellite is in the earth's shadow,  

DLR